DW2363 Weather Reports


Display with metric or nautical units.
time (UTC)temp
F
wind
direction
speed
MPH
gust
MPH
rain 1hr
in
rain 24hr
in
rain mn
in
humidity
%
barometer
mb
20260502222400 76 316 1.0 5.0 0.00 0.00 0.00 57 1012.1
20260502222356 76 40 1.0 4.0 0.00 0.00 0.00 57 1012.0
20260502222003 76 29 1.0 5.0 0.00 0.00 0.00 57 1012.2
20260502220856 76 349 1.0 6.0 0.00 0.00 0.00 59 1012.2
20260502220401 76 26 2.0 7.0 0.00 0.00 0.00 60 1012.4
20260502220357 76 198 1.0 6.0 0.00 0.00 0.00 59 1012.3
20260502215856 76 321 1.0 7.0 0.00 0.00 0.00 61 1012.5
20260502214854 76 124 1.0 4.0 0.00 0.00 0.00 62 1012.5
20260502214354 75 33 1.0 7.0 0.00 0.00 0.00 61 1012.6
20260502213858 75 43 2.0 5.0 0.00 0.00 0.00 63 1012.7
20260502213854 75 35 2.0 7.0 0.00 0.00 0.00 61 1012.7
20260502212852 74 52 2.0 5.0 0.00 0.00 0.00 64 1012.8
20260502212352 74 100 2.0 5.0 0.00 0.00 0.00 65 1012.8
20260502211851 73 100 1.0 5.0 0.00 0.00 0.00 66 1012.9
20260502211351 72 177 1.0 3.0 0.00 0.00 0.00 69 1012.9
20260502210851 71 277 2.0 6.0 0.00 0.00 0.00 69 1013.0
20260502210351 71 264 2.0 6.0 0.00 0.00 0.00 69 1013.0
20260502205854 71 247 1.0 5.0 0.00 0.00 0.00 69 1013.1
20260502205848 71 209 1.0 4.0 0.00 0.00 0.00 69 1013.2
20260502204848 70 209 1.0 5.0 0.00 0.00 0.00 70 1013.2
20260502204348 71 209 1.0 5.0 0.00 0.00 0.00 68 1013.2
20260502203848 71 229 2.0 6.0 0.00 0.00 0.00 67 1013.2
20260502203354 73 162 3.0 9.0 0.00 0.00 0.00 65 1013.2
20260502203348 72 171 2.0 6.0 0.00 0.00 0.00 66 1013.1
20260502202348 73 220 4.0 9.0 0.00 0.00 0.00 65 1013.2
20260502201848 73 24 3.0 9.0 0.00 0.00 0.00 64 1013.2
20260502201353 71 5 4.0 8.0 0.00 0.00 0.00 67 1013.4
20260502201347 72 0 2.0 6.0 0.00 0.00 0.00 67 1013.2
20260502200346 70 9 5.0 9.0 0.00 0.00 0.00 68 1013.4
20260502195846 70 15 6.0 9.0 0.00 0.00 0.00 68 1013.5
20260502195346 70 5 5.0 9.0 0.00 0.00 0.00 67 1013.4
20260502194851 70 0 2.0 5.0 0.00 0.00 0.00 63 1013.7
20260502194845 71 5 3.0 8.0 0.00 0.00 0.00 66 1013.6
20260502193846 70 57 3.0 7.0 0.00 0.00 0.00 67 1013.8
20260502193346 70 22 4.0 8.0 0.00 0.00 0.00 67 1013.7
20260502192846 70 10 3.0 8.0 0.00 0.00 0.00 69 1013.7
20260502192346 70 54 2.0 7.0 0.00 0.00 0.00 70 1013.8
20260502191844 70 60 2.0 7.0 0.00 0.00 0.00 64 1013.9
20260502191344 69 12 2.0 7.0 0.00 0.00 0.00 72 1013.9
20260502190954 67 24 3.0 8.0 0.00 0.00 0.00 77 1014.1
20260502190848 68 5 3.0 7.0 0.00 0.00 0.00 75 1014.0
20260502190844 69 148 4.0 7.0 0.00 0.00 0.00 73 1013.9
20260502185343 66 5 3.0 9.0 0.00 0.00 0.00 80 1014.2
20260502184846 64 241 3.0 9.0 0.00 0.00 0.00 81 1014.2
20260502184842 65 0 2.0 9.0 0.00 0.00 0.00 81 1014.2
20260502183842 65 163 5.0 9.0 0.00 0.00 0.00 79 1014.4
20260502183342 65 14 4.0 9.0 0.00 0.00 0.00 81 1014.3
20260502182842 64 15 2.0 7.0 0.00 0.00 0.00 82 1014.2
20260502182346 64 198 1.0 8.0 0.00 0.00 0.00 82 1014.2
20260502182342 63 92 1.0 8.0 0.00 0.00 0.00 83 1014.3
20260502181341 64 155 2.0 8.0 0.00 0.00 0.00 83 1014.2
20260502180839 63 350 5.0 9.0 0.00 0.00 0.00 83 1014.2
20260502180340 62 19 6.0 9.0 0.00 0.00 0.00 84 1014.1
20260502170335 57 140 7.0 11.0 0.00 0.00 0.00 91 1014.4
20260502163835 59 215 3.0 6.0 0.00 0.00 0.00 85 1014.3
20260502163336 61 184 2.0 6.0 0.00 0.00 0.00 84 1014.4
20260502162835 62 64 1.0 4.0 0.00 0.00 0.00 86 1014.2
20260502162336 60 117 2.0 4.0 0.00 0.00 0.00 89 1014.3
20260502161836 59 41 1.0 4.0 0.00 0.00 0.00 92 1014.2
20260502161335 57 92 2.0 5.0 0.00 0.00 0.00 92 1014.2
20260502160839 57 202 1.0 5.0 0.00 0.00 0.00 91 1014.2
20260502160835 56 212 3.0 5.0 0.00 0.00 0.00 91 1014.2
20260502152333 62 129 1.0 6.0 0.00 0.00 0.00 83 1014.1
20260502151833 62 115 2.0 6.0 0.00 0.00 0.00 84 1014.2
20260502151334 62 38 3.0 9.0 0.00 0.00 0.00 83 1014.0
20260502150834 61 54 2.0 9.0 0.00 0.00 0.00 84 1014.0
20260502150333 60 40 2.0 8.0 0.00 0.00 0.00 87 1013.9
20260502130325 58 46 6.0 7.0 0.00 0.00 0.00 82 1013.2
20260502123324 59 109 5.0 8.0 0.00 0.00 0.00 80 1013.2
20260502122822 60 109 6.0 8.0 0.00 0.00 0.00 83 1013.1
20260502122322 59 104 5.0 8.0 0.00 0.00 0.00 82 1013.0
20260502121823 59 88 4.0 7.0 0.00 0.00 0.00 82 1012.9
20260502121322 59 107 4.0 7.0 0.00 0.00 0.00 82 1013.0
20260502120825 60 121 4.0 7.0 0.00 0.00 0.00 83 1012.9
20260502120821 60 93 4.0 7.0 0.00 0.00 0.00 81 1013.0
20260502120427 59 132 5.0 11.0 0.00 0.00 0.00 80 1013.0
20260502115322 60 129 6.0 11.0 0.00 0.00 0.00 81 1013.0
20260502114819 60 165 6.0 11.0 0.00 0.00 0.00 82 1013.0
20260502114318 60 123 6.0 11.0 0.00 0.00 0.00 80 1012.9
20260502113821 60 128 6.0 11.0 0.00 0.00 0.00 82 1012.8
20260502113817 60 128 5.0 9.0 0.00 0.00 0.00 82 1012.9
20260502112817 60 131 7.0 11.0 0.00 0.00 0.00 79 1012.9
20260502112317 60 116 7.0 8.0 0.00 0.00 0.00 79 1012.8
20260502111816 60 105 7.0 8.0 0.00 0.00 0.00 78 1012.9
20260502111317 60 98 6.0 9.0 0.00 0.00 0.00 80 1012.8
20260502110817 60 103 4.0 9.0 0.00 0.00 0.00 77 1012.8
20260502110317 60 84 4.0 9.0 0.00 0.00 0.00 78 1012.9
20260502105816 61 101 5.0 9.0 0.00 0.00 0.00 78 1012.8
20260502105316 61 101 6.0 9.0 0.00 0.00 0.00 77 1012.9
20260502104817 62 107 4.0 7.0 0.00 0.00 0.00 75 1012.8
20260502104321 63 39 4.0 6.0 0.00 0.00 0.00 71 1012.8
20260502104316 62 106 4.0 6.0 0.00 0.00 0.00 74 1012.8
20260502103316 63 54 4.0 7.0 0.00 0.00 0.00 64 1012.8
20260502102817 62 36 5.0 8.0 0.00 0.00 0.00 65 1012.8
20260502102320 62 28 5.0 9.0 0.00 0.00 0.00 69 1012.8
20260502102316 62 42 5.0 8.0 0.00 0.00 0.00 70 1012.8
20260502101316 63 41 5.0 9.0 0.00 0.00 0.00 70 1012.8
20260502100816 62 38 5.0 10.0 0.00 0.00 0.00 67 1012.8
20260502100317 62 56 5.0 10.0 0.00 0.00 0.00 75 1012.9
20260502091314 60 56 5.0 10.0 0.00 0.00 0.00 79 1013.0
20260502090814 60 49 3.0 10.0 0.00 0.00 0.00 79 1013.1
20260502090314 60 54 4.0 8.0 0.00 0.00 0.00 73 1013.0
20260502071306 67 304 0.0 0.0 0.00 0.00 0.00 48 1014.0
20260502070806 67 304 0.0 1.0 0.00 0.00 0.00 45 1014.0
20260502070306 67 304 0.0 1.0 0.00 0.00 0.00 45 1014.0
20260502065806 67 327 0.0 1.0 0.00 0.00 0.00 45 1014.1
20260502065311 67 339 0.0 2.0 0.00 0.00 0.00 45 1014.0
20260502065306 67 327 0.0 2.0 0.00 0.00 0.00 45 1014.1
20260502064913 67 331 0.0 1.0 0.00 0.00 0.00 44 1014.0
20260502063804 67 302 0.0 0.0 0.00 0.00 0.00 44 1014.0
20260502063305 67 302 0.0 0.0 0.00 0.00 0.00 43 1014.0
20260502062804 67 302 0.0 0.0 0.00 0.00 0.00 43 1014.0
20260502062308 67 302 0.0 1.0 0.00 0.00 0.00 42 1013.8
20260502062306 67 302 0.0 0.0 0.00 0.00 0.00 41 1013.9
20260502061302 68 302 1.0 3.0 0.00 0.00 0.00 42 1013.9
20260502060800 68 294 1.0 3.0 0.00 0.00 0.00 41 1013.9
20260502060304 68 259 0.0 2.0 0.00 0.00 0.00 43 1013.9
20260502060300 68 268 0.0 2.0 0.00 0.00 0.00 42 1013.8
20260502055305 68 261 3.0 6.0 0.00 0.00 0.00 41 1013.8
20260502055259 68 259 1.0 4.0 0.00 0.00 0.00 42 1013.8
20260502054300 67 278 2.0 6.0 0.00 0.00 0.00 41 1013.8
20260502053800 67 324 1.0 4.0 0.00 0.00 0.00 49 1013.8
20260502053259 67 318 1.0 3.0 0.00 0.00 0.00 45 1013.8
20260502052800 67 284 1.0 3.0 0.00 0.00 0.00 42 1013.9
20260502052259 67 279 0.0 2.0 0.00 0.00 0.00 44 1013.9
20260502051800 67 351 0.0 1.0 0.00 0.00 0.00 46 1013.9
20260502051303 67 257 0.0 1.0 0.00 0.00 0.00 51 1013.9
20260502051259 67 351 0.0 1.0 0.00 0.00 0.00 52 1013.9
20260502050258 67 219 0.0 1.0 0.00 0.00 0.00 55 1013.9
20260502045757 67 209 0.0 1.0 0.00 0.00 0.00 53 1013.8
20260502045257 67 202 0.0 3.0 0.00 0.00 0.00 55 1013.7
20260502044757 67 184 0.0 3.0 0.00 0.00 0.00 55 1013.7
20260502044257 67 161 0.0 0.0 0.00 0.00 0.00 57 1013.7
20260502043801 68 161 0.0 1.0 0.00 0.00 0.00 56 1013.7
20260502043757 67 161 0.0 1.0 0.00 0.00 0.00 57 1013.7
20260502042758 68 161 0.0 2.0 0.00 0.00 0.00 55 1013.6
20260502042255 68 161 0.0 2.0 0.00 0.00 0.00 55 1013.5
20260502041755 68 195 0.0 0.0 0.00 0.00 0.00 50 1013.5
20260502041256 68 195 0.0 0.0 0.00 0.00 0.00 45 1013.4
20260502040756 69 195 0.0 1.0 0.00 0.00 0.00 44 1013.2
20260502040255 69 195 0.0 1.0 0.00 0.00 0.00 47 1013.2
20260502035756 69 195 0.0 1.0 0.00 0.00 0.00 45 1013.2
20260502035255 69 195 1.0 3.0 0.00 0.00 0.00 45 1013.0
20260502034754 69 195 1.0 3.0 0.00 0.00 0.00 44 1012.9
20260502034254 69 227 0.0 3.0 0.00 0.00 0.00 40 1012.8
20260502033753 69 207 0.0 2.0 0.00 0.00 0.00 42 1012.8
20260502033403 70 244 5.0 9.0 0.00 0.00 0.00 37 1012.6
20260502033253 70 209 1.0 3.0 0.00 0.00 0.00 42 1012.8
20260502032757 70 255 4.0 9.0 0.00 0.00 0.00 36 1012.7
20260502032753 70 234 2.0 9.0 0.00 0.00 0.00 39 1012.7
20260502031256 70 276 6.0 7.0 0.00 0.00 0.00 37 1012.5
20260502031252 70 254 6.0 9.0 0.00 0.00 0.00 36 1012.6
20260502025148 70 252 4.0 7.0 0.00 0.00 0.00 37 1012.4
20260502025141 70 254 5.0 8.0 0.00 0.00 0.00 36 1012.5
20260502024143 70 265 5.0 9.0 0.00 0.00 0.00 39 1012.5
20260502023647 70 272 3.0 10.0 0.00 0.00 0.00 40 1012.5
20260502023643 70 264 3.0 9.0 0.00 0.00 0.00 40 1012.4
20260502022643 71 259 4.0 10.0 0.00 0.00 0.00 42 1012.4
20260502022138 71 269 4.0 10.0 0.00 0.00 0.00 37 1012.3
20260502021711 71 252 2.0 7.0 0.00 0.00 0.00 38 1012.4
20260502021126 71 220 1.0 4.0 0.00 0.00 0.00 45 1012.4
20260502020623 71 320 2.0 5.0 0.00 0.00 0.00 43 1012.3
20260502020123 70 318 1.0 5.0 0.00 0.00 0.00 46 1012.3
20260502015619 70 232 0.0 2.0 0.00 0.00 0.00 52 1012.3
20260502015119 70 235 0.0 3.0 0.00 0.00 0.00 56 1012.3
20260502014619 70 236 0.0 3.0 0.00 0.00 0.00 56 1012.3
20260502014126 71 185 0.0 3.0 0.00 0.00 0.00 65 1012.2
20260502014119 71 172 0.0 3.0 0.00 0.00 0.00 67 1012.4
20260502013119 70 333 0.0 3.0 0.00 0.00 0.00 63 1012.3
20260502012625 71 5 0.0 2.0 0.00 0.00 0.00 64 1012.3
20260502012619 70 333 0.0 3.0 0.00 0.00 0.00 64 1012.2
20260502011626 71 38 0.0 1.0 0.00 0.00 0.00 64 1012.3
20260502011619 71 41 0.0 1.0 0.00 0.00 0.00 64 1012.3
20260502011228 71 347 0.0 7.0 0.00 0.00 0.00 63 1012.2
20260502010125 71 323 2.0 7.0 0.00 0.00 0.00 61 1012.3
20260502010118 71 346 0.0 7.0 0.00 0.00 0.00 62 1012.3
20260502005116 71 274 3.0 8.0 0.00 0.00 0.00 61 1012.2
20260502004617 71 248 2.0 8.0 0.00 0.00 0.00 61 1012.3
20260502004115 70 260 2.0 8.0 0.00 0.00 0.00 64 1012.3
20260502003623 70 239 5.0 12.0 0.00 0.00 0.00 67 1012.3
20260502003615 70 293 4.0 11.0 0.00 0.00 0.00 67 1012.3
20260502003115 70 235 6.0 12.0 0.00 0.00 0.00 66 1012.3
20260502002117 69 254 8.0 13.0 0.00 0.00 0.00 68 1012.3
20260502002113 70 259 7.0 13.0 0.00 0.00 0.00 69 1012.3
20260502001112 69 273 9.0 13.0 0.00 0.00 0.00 67 1012.2
20260502000612 69 272 9.0 13.0 0.00 0.00 0.00 70 1012.2
20260502000113 69 273 8.0 14.0 0.00 0.00 0.00 69 1012.2
20260501235613 69 275 10.0 14.0 0.00 0.00 0.00 71 1012.3
20260501235111 69 266 10.0 14.0 0.00 0.00 0.00 71 1012.2
20260501234615 69 269 7.0 12.0 0.00 0.00 0.00 71 1012.3
20260501234611 69 274 8.0 13.0 0.00 0.00 0.00 71 1012.2
20260501234218 69 270 8.0 12.0 0.00 0.00 0.00 71 1012.3
20260501233719 68 309 8.0 14.0 0.00 0.00 0.00 73 1012.2
20260501233213 69 273 8.0 14.0 0.00 0.00 0.00 71 1012.3
20260501232719 66 290 4.0 9.0 0.00 0.00 0.00 77 1012.3
20260501232113 67 286 6.0 9.0 0.00 0.00 0.00 75 1012.2
20260501232109 68 316 7.0 11.0 0.00 0.00 0.00 74 1012.2
20260501231217 65 298 4.0 9.0 0.00 0.00 0.00 78 1012.2
20260501230108 65 248 5.0 9.0 0.00 0.00 0.00 77 1012.4
20260501225608 67 209 5.0 10.0 0.00 0.00 0.00 74 1012.4
20260501225108 69 252 6.0 12.0 0.00 0.00 0.00 71 1012.5
20260501224609 70 249 7.0 12.0 0.00 0.00 0.00 69 1012.5
20260501224109 70 269 6.0 11.0 0.00 0.00 0.00 70 1012.5
20260501223608 70 280 6.0 12.0 0.00 0.00 0.00 69 1012.6
20260501223109 70 251 7.0 13.0 0.00 0.00 0.00 69 1012.7
20260501222606 70 269 7.0 13.0 0.00 0.00 0.00 68 1012.7